• In Austria
  • List of Countries
  • For 7 days
  • Water Temperature
  • Satellite Maps
  • Weather Map
  • News
  • Weather Widgets
  • user-avatar
    Login

    Hourly Weather Chiredzi

    Today, 23 October, Tuesday

    Time Temperature Precipitation Wind Pressure Humidity
    00:00 +18°C° 0 mm 3 mps 736 mmHg 56%
    01:00 +17°C° 0 mm 3 mps 736 mmHg 60%
    02:00 +17°C° 0 mm 3 mps 736 mmHg 66%
    03:00 +16°C° 0 mm 3 mps 736 mmHg 69%
    04:00 +16°C° 0 mm 3 mps 736 mmHg 72%
    05:00 +16°C° 0 mm 3 mps 736 mmHg 76%
    06:00 +17°C° 0 mm 3 mps 737 mmHg 69%
    07:00 +19°C° 0 mm 4 mps 737 mmHg 63%
    08:00 +20°C° 0 mm 4 mps 738 mmHg 57%
    09:00 +22°C° 0 mm 4 mps 737 mmHg 51%
    10:00 +23°C° 0 mm 4 mps 737 mmHg 44%
    11:00 +26°C° 0 mm 4 mps 737 mmHg 38%
    12:00 +26°C° 0 mm 4 mps 736 mmHg 35%
    13:00 +27°C° 0 mm 4 mps 735 mmHg 32%
    14:00 +28°C° 0 mm 4 mps 734 mmHg 29%
    15:00 +28°C° 0 mm 4 mps 734 mmHg 30%
    16:00 +27°C° 0 mm 5 mps 733 mmHg 30%
    17:00 +27°C° 0 mm 5 mps 733 mmHg 31%
    18:00 +26°C° 0 mm 4 mps 733 mmHg 33%
    19:00 +25°C° 0 mm 4 mps 733 mmHg 36%
    20:00 +24°C° 0 mm 3 mps 734 mmHg 39%
    21:00 +22°C° 0 mm 3 mps 734 mmHg 42%
    22:00 +21°C° 0 mm 3 mps 734 mmHg 45%
    23:00 +21°C° 0 mm 3 mps 734 mmHg 49%

    Tomorrow, 24 October, Wednesday

    Time Temperature Precipitation Wind Pressure Humidity
    00:00 +20°C° 0 mm 3 mps 734 mmHg 53%
    01:00 +20°C° 0 mm 3 mps 734 mmHg 58%
    02:00 +19°C° 0 mm 4 mps 734 mmHg 62%
    03:00 +19°C° 0 mm 3 mps 734 mmHg 66%
    04:00 +18°C° 0 mm 3 mps 734 mmHg 69%
    05:00 +18°C° 0 mm 2 mps 733 mmHg 73%
    06:00 +19°C° 0 mm 3 mps 734 mmHg 67%
    07:00 +20°C° 0 mm 3 mps 734 mmHg 61%
    08:00 +21°C° 0 mm 3 mps 735 mmHg 55%
    09:00 +24°C° 0 mm 3 mps 734 mmHg 48%
    10:00 +26°C° 0 mm 3 mps 734 mmHg 41%
    11:00 +27°C° 0 mm 3 mps 734 mmHg 35%
    12:00 +28°C° 0 mm 3 mps 733 mmHg 32%
    13:00 +29°C° 0 mm 3 mps 732 mmHg 30%
    14:00 +30°C° 0 mm 3 mps 731 mmHg 27%
    15:00 +29°C° 0 mm 3 mps 731 mmHg 27%
    16:00 +29°C° 0 mm 3 mps 731 mmHg 27%
    17:00 +28°C° 0 mm 3 mps 730 mmHg 28%
    18:00 +27°C° 0 mm 3 mps 730 mmHg 29%
    19:00 +26°C° 0 mm 2 mps 731 mmHg 31%
    20:00 +25°C° 0 mm 2 mps 731 mmHg 33%
    21:00 +25°C° 0 mm 2 mps 731 mmHg 35%
    22:00 +24°C° 0 mm 2 mps 731 mmHg 37%
    23:00 +24°C° 0 mm 2 mps 731 mmHg 40%

    Day after tomorrow, 25 October, Thursday

    Time Temperature Precipitation Wind Pressure Humidity
    00:00 +23°C° 0 mm 2 mps 731 mmHg 45%
    01:00 +23°C° 0 mm 2 mps 730 mmHg 51%
    02:00 +21°C° 0 mm 2 mps 730 mmHg 56%
    03:00 +21°C° 0 mm 2 mps 730 mmHg 62%
    04:00 +20°C° 0 mm 2 mps 730 mmHg 68%
    05:00 +19°C° 0 mm 2 mps 730 mmHg 74%
    06:00 +21°C° 0 mm 2 mps 731 mmHg 68%
    07:00 +22°C° 0 mm 3 mps 731 mmHg 63%
    08:00 +25°C° 0 mm 3 mps 732 mmHg 57%
    09:00 +27°C° 0 mm 3 mps 732 mmHg 49%
    10:00 +29°C° 0 mm 4 mps 732 mmHg 42%
    11:00 +32°C° 0 mm 4 mps 731 mmHg 34%
    12:00 +33°C° 0 mm 4 mps 731 mmHg 31%
    13:00 +34°C° 0 mm 4 mps 730 mmHg 28%
    14:00 +34°C° 0 mm 4 mps 729 mmHg 25%
    15:00 +34°C° 0 mm 4 mps 729 mmHg 25%
    16:00 +34°C° 0 mm 4 mps 728 mmHg 25%
    17:00 +33°C° 0 mm 3 mps 728 mmHg 25%
    18:00 +30°C° 0 mm 3 mps 729 mmHg 28%
    19:00 +29°C° 0 mm 3 mps 729 mmHg 31%
    20:00 +27°C° 0 mm 2 mps 730 mmHg 34%
    21:00 +26°C° 0 mm 2 mps 730 mmHg 36%
    22:00 +26°C° 0 mm 2 mps 730 mmHg 37%
    23:00 +25°C° 0 mm 2 mps 730 mmHg 39%

    26 October, Friday

    Time Temperature Precipitation Wind Pressure Humidity
    00:00 +24°C° 0 mm 2 mps 730 mmHg 44%
    01:00 +23°C° 0 mm 2 mps 729 mmHg 49%
    02:00 +23°C° 0 mm 2 mps 729 mmHg 54%
    03:00 +21°C° 0 mm 2 mps 729 mmHg 61%
    04:00 +20°C° 0 mm 2 mps 729 mmHg 67%
    05:00 +20°C° 0 mm 2 mps 729 mmHg 74%
    06:00 +23°C° 0 mm 2 mps 730 mmHg 66%
    07:00 +25°C° 0 mm 2 mps 731 mmHg 59%
    08:00 +27°C° 0 mm 2 mps 731 mmHg 51%
    09:00 +29°C° 0 mm 3 mps 731 mmHg 43%
    10:00 +31°C° 0 mm 3 mps 731 mmHg 34%
    11:00 +35°C° 0 mm 3 mps 730 mmHg 26%
    12:00 +35°C° 0 mm 4 mps 730 mmHg 24%
    13:00 +36°C° 0 mm 4 mps 729 mmHg 22%
    14:00 +37°C° 0 mm 4 mps 728 mmHg 20%
    15:00 +37°C° 0 mm 4 mps 728 mmHg 21%
    16:00 +36°C° 0 mm 4 mps 728 mmHg 21%
    17:00 +36°C° 0 mm 4 mps 728 mmHg 22%
    18:00 +34°C° 0 mm 3 mps 728 mmHg 25%
    19:00 +31°C° 0 mm 3 mps 729 mmHg 28%
    20:00 +29°C° 0 mm 2 mps 729 mmHg 30%
    21:00 +28°C° 0 mm 2 mps 729 mmHg 32%
    22:00 +27°C° 0 mm 2 mps 729 mmHg 34%
    23:00 +27°C° 0 mm 2 mps 729 mmHg 36%

    27 October, Saturday

    Time Temperature Precipitation Wind Pressure Humidity
    00:00 +26°C° 0 mm 2 mps 729 mmHg 42%
    01:00 +25°C° 0 mm 2 mps 729 mmHg 48%
    02:00 +24°C° 0 mm 2 mps 728 mmHg 54%
    03:00 +23°C° 0 mm 2 mps 729 mmHg 60%
    04:00 +21°C° 0 mm 2 mps 729 mmHg 65%
    05:00 +20°C° 0 mm 2 mps 729 mmHg 71%
    06:00 +23°C° 0 mm 2 mps 730 mmHg 64%
    07:00 +25°C° 0 mm 2 mps 730 mmHg 57%
    08:00 +28°C° 0 mm 2 mps 731 mmHg 50%
    09:00 +30°C° 0 mm 3 mps 731 mmHg 42%
    10:00 +33°C° 0 mm 3 mps 731 mmHg 34%
    11:00 +35°C° 0 mm 4 mps 730 mmHg 27%
    12:00 +36°C° 0 mm 4 mps 730 mmHg 24%
    13:00 +37°C° 0 mm 4 mps 729 mmHg 22%
    14:00 +37°C° 0 mm 4 mps 728 mmHg 20%
    15:00 +37°C° 0 mm 4 mps 728 mmHg 20%
    16:00 +36°C° 0 mm 4 mps 727 mmHg 20%
    17:00 +36°C° 0 mm 4 mps 727 mmHg 20%
    18:00 +34°C° 0 mm 4 mps 728 mmHg 23%
    19:00 +31°C° 0 mm 3 mps 728 mmHg 25%
    20:00 +29°C° 0 mm 3 mps 728 mmHg 28%
    21:00 +28°C° 0 mm 2 mps 728 mmHg 30%
    22:00 +27°C° 0 mm 2 mps 728 mmHg 32%
    23:00 +26°C° 0 mm 2 mps 728 mmHg 34%

    28 October, Sunday

    Time Temperature Precipitation Wind Pressure Humidity
    00:00 +25°C° 0 mm 2 mps 728 mmHg 39%
    01:00 +24°C° 0 mm 2 mps 728 mmHg 45%
    02:00 +23°C° 0 mm 1 mps 727 mmHg 51%
    03:00 +22°C° 0 mm 1 mps 727 mmHg 56%
    04:00 +22°C° 0 mm 1 mps 727 mmHg 62%
    05:00 +21°C° 0 mm 1 mps 727 mmHg 68%
    06:00 +23°C° 0 mm 1 mps 728 mmHg 60%
    07:00 +26°C° 0 mm 1 mps 729 mmHg 53%
    08:00 +28°C° 0 mm 2 mps 729 mmHg 45%
    09:00 +30°C° 0 mm 2 mps 729 mmHg 38%
    10:00 +33°C° 0 mm 3 mps 728 mmHg 31%
    11:00 +35°C° 0 mm 3 mps 728 mmHg 24%
    12:00 +36°C° 0 mm 3 mps 727 mmHg 22%
    13:00 +37°C° 0 mm 3 mps 726 mmHg 20%
    14:00 +38°C° 0 mm 3 mps 726 mmHg 18%
    15:00 +38°C° 0 mm 4 mps 725 mmHg 19%
    16:00 +37°C° 0 mm 4 mps 725 mmHg 19%
    17:00 +37°C° 0 mm 4 mps 725 mmHg 20%
    18:00 +35°C° 0 mm 4 mps 725 mmHg 23%
    19:00 +33°C° 0 mm 3 mps 726 mmHg 25%
    20:00 +30°C° 0 mm 3 mps 726 mmHg 28%
    21:00 +29°C° 0 mm 3 mps 726 mmHg 30%
    22:00 +28°C° 0 mm 3 mps 726 mmHg 31%
    23:00 +27°C° 0 mm 3 mps 726 mmHg 33%

    29 October, Monday

    Time Temperature Precipitation Wind Pressure Humidity
    00:00 +26°C° 0 mm 2 mps 726 mmHg 37%
    01:00 +25°C° 0 mm 2 mps 725 mmHg 41%
    02:00 +25°C° 0 mm 2 mps 725 mmHg 45%
    03:00 +24°C° 0 mm 2 mps 725 mmHg 53%
    04:00 +22°C° 0 mm 3 mps 726 mmHg 62%
    05:00 +21°C° 0 mm 3 mps 726 mmHg 70%
    06:00 +23°C° 0 mm 4 mps 726 mmHg 67%
    07:00 +25°C° 0 mm 4 mps 727 mmHg 65%
    08:00 +26°C° 0 mm 4 mps 727 mmHg 62%
    09:00 +28°C° 0 mm 4 mps 727 mmHg 56%
    10:00 +29°C° 0 mm 4 mps 727 mmHg 50%
    11:00 +32°C° 0 mm 4 mps 727 mmHg 43%
    12:00 +34°C° 0 mm 4 mps 726 mmHg 39%
    13:00 +35°C° 0 mm 4 mps 725 mmHg 35%
    14:00 +36°C° 0 mm 3 mps 724 mmHg 31%
    15:00 +36°C° 0 mm 3 mps 724 mmHg 31%
    16:00 +35°C° 0 mm 3 mps 724 mmHg 31%
    17:00 +35°C° 0 mm 3 mps 723 mmHg 31%
    18:00 +33°C° 0 mm 3 mps 724 mmHg 35%
    19:00 +31°C° 0 mm 2 mps 724 mmHg 38%
    20:00 +29°C° 0 mm 2 mps 724 mmHg 42%
    21:00 +28°C° 0 mm 2 mps 724 mmHg 45%
    22:00 +27°C° 0 mm 2 mps 724 mmHg 47%
    23:00 +27°C° 0 mm 1 mps 724 mmHg 50%
    Show more